Time,TemperatureF,DewpointF,PressureIn,WindDirection,WindDirectionDegrees,WindSpeedMPH,WindSpeedGustMPH,Humidity,HourlyPrecipIn,Conditions,Clouds,dailyrainin,SoftwareType,DateUTC
2013-04-06 00:04:00,29.8,21.2,30.72,WSW,247,0.0,0.0,70,0.00,,,0.00,WUHU21623XXSP,2013-04-06 04:04:00,
2013-04-06 00:09:00,29.8,21.2,30.71,WSW,247,0.0,0.0,70,0.00,,,0.00,WUHU21623XXSP,2013-04-06 04:09:00,
2013-04-06 00:13:00,29.8,21.2,30.71,WSW,247,0.0,0.0,70,0.00,,,0.00,WUHU21623XXSP,2013-04-06 04:13:00,
2013-04-06 00:19:00,29.8,21.2,30.71,WSW,247,0.0,0.0,70,0.00,,,0.00,WUHU21623XXSP,2013-04-06 04:19:00,
2013-04-06 00:24:00,29.8,21.5,30.71,WSW,247,0.0,0.0,71,0.00,,,0.00,WUHU21623XXSP,2013-04-06 04:24:00,
2013-04-06 00:30:00,29.8,21.5,30.71,WSW,247,0.0,0.0,71,0.00,,,0.00,WUHU21623XXSP,2013-04-06 04:30:00,
2013-04-06 00:34:00,29.8,21.5,30.71,WSW,247,0.0,0.0,71,0.00,,,0.00,WUHU21623XXSP,2013-04-06 04:34:00,
2013-04-06 00:39:00,29.8,21.5,30.71,WSW,247,0.0,0.0,71,0.00,,,0.00,WUHU21623XXSP,2013-04-06 04:39:00,
2013-04-06 00:45:00,29.7,21.4,30.71,WSW,247,0.0,0.0,71,0.00,,,0.00,WUHU21623XXSP,2013-04-06 04:45:00,
2013-04-06 00:49:00,29.7,21.4,30.71,WSW,247,0.0,0.0,71,0.00,,,0.00,WUHU21623XXSP,2013-04-06 04:49:00,
2013-04-06 00:56:00,29.5,21.2,30.71,WSW,247,0.0,0.0,71,0.00,,,0.00,WUHU21623XXSP,2013-04-06 04:56:00,
2013-04-06 01:01:00,29.5,21.2,30.71,WSW,247,0.0,0.0,71,0.00,,,0.00,WUHU21623XXSP,2013-04-06 05:01:00,
2013-04-06 01:04:00,29.5,21.2,30.71,WSW,247,0.0,0.0,71,0.00,,,0.00,WUHU21623XXSP,2013-04-06 05:04:00,
2013-04-06 01:11:00,29.5,21.2,30.71,WSW,247,0.0,0.0,71,0.00,,,0.00,WUHU21623XXSP,2013-04-06 05:11:00,
2013-04-06 01:15:00,29.5,21.2,30.71,WSW,247,0.0,0.0,71,0.00,,,0.00,WUHU21623XXSP,2013-04-06 05:15:00,
2013-04-06 01:22:00,29.3,21.1,30.71,WSW,247,0.0,0.0,71,0.00,,,0.00,WUHU21623XXSP,2013-04-06 05:22:00,
2013-04-06 01:26:00,29.3,21.1,30.71,WSW,247,0.0,0.0,71,0.00,,,0.00,WUHU21623XXSP,2013-04-06 05:26:00,
2013-04-06 01:30:00,29.3,21.4,30.71,WSW,247,0.0,0.0,72,0.00,,,0.00,WUHU21623XXSP,2013-04-06 05:30:00,
2013-04-06 01:36:00,29.3,21.4,30.72,WSW,247,0.0,0.0,72,0.00,,,0.00,WUHU21623XXSP,2013-04-06 05:36:00,
2013-04-06 01:41:00,29.1,21.2,30.72,WSW,247,0.0,0.0,72,0.00,,,0.00,WUHU21623XXSP,2013-04-06 05:41:00,
2013-04-06 01:47:00,29.1,21.2,30.73,WSW,247,0.0,0.0,72,0.00,,,0.00,WUHU21623XXSP,2013-04-06 05:47:00,
2013-04-06 01:52:00,29.3,21.7,30.72,WSW,247,0.0,0.0,73,0.00,,,0.00,WUHU21623XXSP,2013-04-06 05:52:00,
2013-04-06 01:56:00,29.5,21.8,30.73,WSW,247,0.0,0.0,73,0.00,,,0.00,WUHU21623XXSP,2013-04-06 05:56:00,
2013-04-06 02:02:00,29.5,21.8,30.73,WSW,247,0.0,0.0,73,0.00,,,0.00,WUHU21623XXSP,2013-04-06 06:02:00,
2013-04-06 02:07:00,29.7,22.0,30.72,WSW,247,0.0,0.0,73,0.00,,,0.00,WUHU21623XXSP,2013-04-06 06:07:00,
2013-04-06 02:13:00,30.0,22.4,30.73,WSW,247,0.0,0.0,73,0.00,,,0.00,WUHU21623XXSP,2013-04-06 06:13:00,
2013-04-06 02:17:00,30.0,22.0,30.72,NE,45,0.0,0.0,72,0.00,,,0.00,WUHU21623XXSP,2013-04-06 06:17:00,
2013-04-06 02:21:00,30.0,22.0,30.73,NE,45,0.0,0.0,72,0.00,,,0.00,WUHU21623XXSP,2013-04-06 06:21:00,
2013-04-06 02:28:00,30.0,22.0,30.73,ENE,67,0.0,0.0,72,0.00,,,0.00,WUHU21623XXSP,2013-04-06 06:28:00,
2013-04-06 02:32:00,30.0,21.7,30.73,ENE,67,0.0,0.0,71,0.00,,,0.00,WUHU21623XXSP,2013-04-06 06:32:00,
2013-04-06 02:39:00,30.0,21.7,30.72,ENE,67,0.0,0.0,71,0.00,,,0.00,WUHU21623XXSP,2013-04-06 06:39:00,
2013-04-06 02:43:00,30.0,21.7,30.72,ENE,67,0.0,0.0,71,0.00,,,0.00,WUHU21623XXSP,2013-04-06 06:43:00,
2013-04-06 02:47:00,29.8,21.5,30.73,ENE,67,0.0,0.0,71,0.00,,,0.00,WUHU21623XXSP,2013-04-06 06:47:00,
2013-04-06 02:54:00,29.8,21.5,30.72,NNE,22,0.0,0.0,71,0.00,,,0.00,WUHU21623XXSP,2013-04-06 06:54:00,
2013-04-06 02:58:00,29.7,21.4,30.73,North,0,0.0,0.0,71,0.00,,,0.00,WUHU21623XXSP,2013-04-06 06:58:00,
2013-04-06 03:04:00,29.5,21.2,30.73,North,0,0.0,0.0,71,0.00,,,0.00,WUHU21623XXSP,2013-04-06 07:04:00,
2013-04-06 03:09:00,29.5,20.9,30.73,NW,315,0.0,0.0,70,0.00,,,0.00,WUHU21623XXSP,2013-04-06 07:09:00,
2013-04-06 03:13:00,29.5,20.9,30.73,NW,315,0.0,0.0,70,0.00,,,0.00,WUHU21623XXSP,2013-04-06 07:13:00,
2013-04-06 03:19:00,29.5,20.9,30.73,WNW,292,0.0,0.0,70,0.00,,,0.00,WUHU21623XXSP,2013-04-06 07:19:00,
2013-04-06 03:24:00,29.3,20.8,30.72,WNW,292,0.0,0.0,70,0.00,,,0.00,WUHU21623XXSP,2013-04-06 07:24:00,
2013-04-06 03:30:00,29.3,20.8,30.72,NE,45,0.0,0.0,70,0.00,,,0.00,WUHU21623XXSP,2013-04-06 07:30:00,
2013-04-06 03:34:00,29.5,20.9,30.73,South,180,0.0,0.0,70,0.00,,,0.00,WUHU21623XXSP,2013-04-06 07:34:00,
2013-04-06 03:39:00,29.5,20.9,30.73,SSE,157,0.0,0.0,70,0.00,,,0.00,WUHU21623XXSP,2013-04-06 07:39:00,
2013-04-06 03:45:00,29.5,20.9,30.73,South,180,0.0,0.0,70,0.00,,,0.00,WUHU21623XXSP,2013-04-06 07:45:00,
2013-04-06 03:49:00,29.5,20.9,30.72,East,90,0.0,0.0,70,0.00,,,0.00,WUHU21623XXSP,2013-04-06 07:49:00,
2013-04-06 03:56:00,29.5,20.9,30.72,North,0,0.0,0.0,70,0.00,,,0.00,WUHU21623XXSP,2013-04-06 07:56:00,
2013-04-06 04:00:00,29.5,20.9,30.73,North,0,0.0,0.0,70,0.00,,,0.00,WUHU21623XXSP,2013-04-06 08:00:00,
2013-04-06 04:04:00,29.5,20.9,30.73,North,0,0.0,0.0,70,0.00,,,0.00,WUHU21623XXSP,2013-04-06 08:04:00,
2013-04-06 04:11:00,29.7,21.1,30.72,North,0,0.0,0.0,70,0.00,,,0.00,WUHU21623XXSP,2013-04-06 08:11:00,
2013-04-06 04:15:00,29.7,21.1,30.72,North,0,0.0,0.0,70,0.00,,,0.00,WUHU21623XXSP,2013-04-06 08:15:00,
2013-04-06 04:21:00,29.8,21.5,30.72,North,0,0.0,0.0,71,0.00,,,0.00,WUHU21623XXSP,2013-04-06 08:21:00,
2013-04-06 04:26:00,29.8,21.5,30.72,NW,315,0.0,0.0,71,0.00,,,0.00,WUHU21623XXSP,2013-04-06 08:26:00,
2013-04-06 04:32:00,29.8,21.5,30.72,NW,315,0.0,0.0,71,0.00,,,0.00,WUHU21623XXSP,2013-04-06 08:32:00,
2013-04-06 04:36:00,30.0,21.7,30.72,NW,315,0.0,0.0,71,0.00,,,0.00,WUHU21623XXSP,2013-04-06 08:36:00,
2013-04-06 04:41:00,30.0,21.7,30.72,NW,315,0.0,0.0,71,0.00,,,0.00,WUHU21623XXSP,2013-04-06 08:41:00,
2013-04-06 04:47:00,30.0,21.4,30.72,NNW,337,0.0,0.0,70,0.00,,,0.00,WUHU21623XXSP,2013-04-06 08:47:00,
2013-04-06 04:51:00,30.0,21.4,30.72,North,0,0.0,0.0,70,0.00,,,0.00,WUHU21623XXSP,2013-04-06 08:51:00,
2013-04-06 04:58:00,30.2,21.6,30.71,NNW,337,0.0,0.0,70,0.00,,,0.00,WUHU21623XXSP,2013-04-06 08:58:00,
2013-04-06 05:02:00,30.4,21.7,30.71,SSW,202,0.0,0.0,70,0.00,,,0.00,WUHU21623XXSP,2013-04-06 09:02:00,
2013-04-06 05:06:00,30.4,21.7,30.71,West,270,0.0,0.0,70,0.00,,,0.00,WUHU21623XXSP,2013-04-06 09:06:00,
2013-04-06 05:13:00,30.4,21.7,30.72,WNW,292,0.0,0.0,70,0.00,,,0.00,WUHU21623XXSP,2013-04-06 09:13:00,
2013-04-06 05:17:00,30.4,21.7,30.71,North,0,0.0,0.0,70,0.00,,,0.00,WUHU21623XXSP,2013-04-06 09:17:00,
2013-04-06 05:21:00,30.6,21.6,30.72,North,0,0.0,0.0,69,0.00,,,0.00,WUHU21623XXSP,2013-04-06 09:21:00,
2013-04-06 05:28:00,30.6,21.6,30.71,North,0,0.0,0.0,69,0.00,,,0.00,WUHU21623XXSP,2013-04-06 09:28:00,
2013-04-06 05:32:00,30.7,21.7,30.71,NW,315,0.0,0.0,69,0.00,,,0.00,WUHU21623XXSP,2013-04-06 09:32:00,
2013-04-06 05:39:00,30.7,21.7,30.71,NNW,337,0.0,0.0,69,0.00,,,0.00,WUHU21623XXSP,2013-04-06 09:39:00,
2013-04-06 05:43:00,30.7,21.7,30.71,WNW,292,0.0,0.0,69,0.00,,,0.00,WUHU21623XXSP,2013-04-06 09:43:00,
2013-04-06 05:47:00,30.7,21.7,30.71,NW,315,0.0,0.0,69,0.00,,,0.00,WUHU21623XXSP,2013-04-06 09:47:00,
2013-04-06 05:54:00,30.7,21.7,30.71,NNE,22,0.0,0.0,69,0.00,,,0.00,WUHU21623XXSP,2013-04-06 09:54:00,
2013-04-06 05:58:00,30.7,21.7,30.71,WNW,292,0.0,0.0,69,0.00,,,0.00,WUHU21623XXSP,2013-04-06 09:58:00,
2013-04-06 06:04:00,30.9,21.6,30.71,NE,45,0.0,0.0,68,0.00,,,0.00,WUHU21623XXSP,2013-04-06 10:04:00,
2013-04-06 06:09:00,30.9,21.6,30.71,North,0,0.0,0.0,68,0.00,,,0.00,WUHU21623XXSP,2013-04-06 10:09:00,
2013-04-06 06:13:00,30.9,21.6,30.71,North,0,0.0,0.0,68,0.00,,,0.00,WUHU21623XXSP,2013-04-06 10:13:00,
2013-04-06 06:19:00,30.9,21.6,30.71,WNW,292,0.0,0.0,68,0.00,,,0.00,WUHU21623XXSP,2013-04-06 10:19:00,
2013-04-06 06:24:00,30.9,21.6,30.71,WNW,292,0.0,0.0,68,0.00,,,0.00,WUHU21623XXSP,2013-04-06 10:24:00,
2013-04-06 06:30:00,31.1,21.7,30.71,North,0,0.0,0.0,68,0.00,,,0.00,WUHU21623XXSP,2013-04-06 10:30:00,
2013-04-06 06:34:00,31.1,21.4,30.71,North,0,0.0,0.0,67,0.00,,,0.00,WUHU21623XXSP,2013-04-06 10:34:00,
2013-04-06 06:39:00,31.1,21.4,30.71,NNE,22,0.0,0.0,67,0.00,,,0.00,WUHU21623XXSP,2013-04-06 10:39:00,
2013-04-06 06:45:00,31.3,21.6,30.71,North,0,0.0,0.0,67,0.00,,,0.00,WUHU21623XXSP,2013-04-06 10:45:00,
2013-04-06 06:49:00,31.3,21.6,30.71,ENE,67,0.0,0.0,67,0.00,,,0.00,WUHU21623XXSP,2013-04-06 10:49:00,
2013-04-06 06:56:00,31.3,21.2,30.71,WNW,292,0.0,0.0,66,0.00,,,0.00,WUHU21623XXSP,2013-04-06 10:56:00,
2013-04-06 07:00:00,31.3,21.2,30.71,NNE,22,0.0,0.0,66,0.00,,,0.00,WUHU21623XXSP,2013-04-06 11:00:00,
2013-04-06 07:04:00,31.5,21.4,30.71,NNW,337,0.0,0.0,66,0.00,,,0.00,WUHU21623XXSP,2013-04-06 11:04:00,
2013-04-06 07:11:00,31.3,21.2,30.71,NNW,337,0.0,0.0,66,0.00,,,0.00,WUHU21623XXSP,2013-04-06 11:11:00,
2013-04-06 07:15:00,31.6,21.6,30.71,NW,315,0.0,0.0,66,0.00,,,0.00,WUHU21623XXSP,2013-04-06 11:15:00,
2013-04-06 07:21:00,31.6,21.6,30.71,West,270,0.0,0.0,66,0.00,,,0.00,WUHU21623XXSP,2013-04-06 11:21:00,
2013-04-06 07:26:00,31.6,21.6,30.71,North,0,0.0,0.0,66,0.00,,,0.00,WUHU21623XXSP,2013-04-06 11:26:00,
2013-04-06 07:30:00,31.6,21.9,30.71,NNE,22,0.0,0.0,67,0.00,,,0.00,WUHU21623XXSP,2013-04-06 11:30:00,
2013-04-06 07:36:00,31.8,21.7,30.71,SE,135,0.0,0.0,66,0.00,,,0.00,WUHU21623XXSP,2013-04-06 11:36:00,
2013-04-06 07:41:00,32.2,22.1,30.70,SE,135,0.0,0.0,66,0.00,,,0.00,WUHU21623XXSP,2013-04-06 11:41:00,
2013-04-06 07:47:00,32.2,22.1,30.70,NE,45,0.0,0.0,66,0.00,,,0.00,WUHU21623XXSP,2013-04-06 11:47:00,
2013-04-06 07:51:00,32.2,22.1,30.71,NNE,22,0.0,0.0,66,0.00,,,0.00,WUHU21623XXSP,2013-04-06 11:51:00,
2013-04-06 07:56:00,32.2,21.7,30.70,NW,315,0.0,0.0,65,0.00,,,0.00,WUHU21623XXSP,2013-04-06 11:56:00,
2013-04-06 08:02:00,32.5,22.0,30.71,SE,135,0.0,0.0,65,0.00,,,0.00,WUHU21623XXSP,2013-04-06 12:02:00,
2013-04-06 08:06:00,32.5,22.0,30.71,SSW,202,0.0,0.0,65,0.00,,,0.00,WUHU21623XXSP,2013-04-06 12:06:00,
2013-04-06 08:13:00,32.7,21.8,30.71,NNE,22,0.0,0.0,64,0.00,,,0.00,WUHU21623XXSP,2013-04-06 12:13:00,
2013-04-06 08:17:00,32.7,21.8,30.71,NNE,22,0.0,0.0,64,0.00,,,0.00,WUHU21623XXSP,2013-04-06 12:17:00,
2013-04-06 08:21:00,32.9,22.0,30.70,West,270,0.0,0.0,64,0.00,,,0.00,WUHU21623XXSP,2013-04-06 12:21:00,
2013-04-06 08:28:00,32.9,21.6,30.70,West,270,0.0,0.0,63,0.00,,,0.00,WUHU21623XXSP,2013-04-06 12:28:00,
2013-04-06 08:32:00,32.9,21.6,30.70,NNE,22,0.0,0.0,63,0.00,,,0.00,WUHU21623XXSP,2013-04-06 12:32:00,
2013-04-06 08:39:00,33.1,21.5,30.70,NE,45,0.0,0.0,62,0.00,,,0.00,WUHU21623XXSP,2013-04-06 12:39:00,
2013-04-06 08:43:00,33.3,21.6,30.71,NNE,22,0.0,0.0,62,0.00,,,0.00,WUHU21623XXSP,2013-04-06 12:43:00,
2013-04-06 08:49:00,33.4,21.8,30.70,ENE,67,0.0,0.0,62,0.00,,,0.00,WUHU21623XXSP,2013-04-06 12:49:00,
2013-04-06 08:54:00,33.6,21.6,30.70,SW,225,0.0,0.0,61,0.00,,,0.00,WUHU21623XXSP,2013-04-06 12:54:00,
2013-04-06 08:58:00,33.6,21.6,30.70,NW,315,0.0,0.0,61,0.00,,,0.00,WUHU21623XXSP,2013-04-06 12:58:00,
2013-04-06 09:04:00,33.6,21.6,30.71,NE,45,0.0,0.0,61,0.00,,,0.00,WUHU21623XXSP,2013-04-06 13:04:00,
2013-04-06 09:09:00,33.6,21.2,30.70,SSW,202,0.0,0.0,60,0.00,,,0.00,WUHU21623XXSP,2013-04-06 13:09:00,
2013-04-06 09:13:00,33.6,21.2,30.70,WNW,292,0.0,0.0,60,0.00,,,0.00,WUHU21623XXSP,2013-04-06 13:13:00,
2013-04-06 09:19:00,33.6,21.2,30.70,ESE,112,0.0,0.0,60,0.00,,,0.00,WUHU21623XXSP,2013-04-06 13:19:00,
2013-04-06 09:24:00,33.6,21.2,30.70,NE,45,0.0,0.0,60,0.00,,,0.00,WUHU21623XXSP,2013-04-06 13:24:00,
2013-04-06 09:30:00,33.8,21.4,30.70,NE,45,0.0,0.0,60,0.00,,,0.00,WUHU21623XXSP,2013-04-06 13:30:00,
2013-04-06 09:34:00,33.8,21.4,30.70,ESE,112,0.0,0.0,60,0.00,,,0.00,WUHU21623XXSP,2013-04-06 13:34:00,
2013-04-06 09:41:00,34.0,21.6,30.70,WSW,247,0.0,0.0,60,0.00,,,0.00,WUHU21623XXSP,2013-04-06 13:41:00,
2013-04-06 09:45:00,34.0,21.6,30.69,East,90,0.0,0.0,60,0.00,,,0.00,WUHU21623XXSP,2013-04-06 13:45:00,
2013-04-06 09:49:00,34.0,21.6,30.69,NNW,337,0.0,0.0,60,0.00,,,0.00,WUHU21623XXSP,2013-04-06 13:49:00,
2013-04-06 09:56:00,34.2,21.7,30.70,ENE,67,0.0,0.0,60,0.00,,,0.00,WUHU21623XXSP,2013-04-06 13:56:00,
2013-04-06 10:00:00,34.2,21.3,30.69,East,90,0.0,0.0,59,0.00,,,0.00,WUHU21623XXSP,2013-04-06 14:00:00,
2013-04-06 10:06:00,34.3,21.9,30.70,NE,45,0.0,0.0,60,0.00,,,0.00,WUHU21623XXSP,2013-04-06 14:06:00,
2013-04-06 10:11:00,34.3,21.9,30.69,SE,135,0.0,0.0,60,0.00,,,0.00,WUHU21623XXSP,2013-04-06 14:11:00,
2013-04-06 10:15:00,34.7,22.3,30.69,West,270,0.0,0.0,60,0.00,,,0.00,WUHU21623XXSP,2013-04-06 14:15:00,
2013-04-06 10:21:00,34.9,22.5,30.69,NE,45,0.0,0.0,60,0.00,,,0.00,WUHU21623XXSP,2013-04-06 14:21:00,
2013-04-06 10:26:00,34.9,22.0,30.69,NW,315,0.0,0.0,59,0.00,,,0.00,WUHU21623XXSP,2013-04-06 14:26:00,
2013-04-06 10:32:00,34.9,22.0,30.68,ESE,112,0.0,0.0,59,0.00,,,0.00,WUHU21623XXSP,2013-04-06 14:32:00,
2013-04-06 10:36:00,35.1,22.2,30.68,NE,45,0.0,0.0,59,0.00,,,0.00,WUHU21623XXSP,2013-04-06 14:36:00,
2013-04-06 10:41:00,35.1,21.8,30.68,SSW,202,0.0,0.0,58,0.00,,,0.00,WUHU21623XXSP,2013-04-06 14:41:00,
2013-04-06 10:47:00,35.2,22.0,30.68,NE,45,0.0,0.0,58,0.00,,,0.00,WUHU21623XXSP,2013-04-06 14:47:00,
2013-04-06 10:51:00,35.2,22.0,30.68,NNW,337,0.0,0.0,58,0.00,,,0.00,WUHU21623XXSP,2013-04-06 14:51:00,
2013-04-06 10:56:00,35.2,21.5,30.67,North,0,0.0,0.0,57,0.00,,,0.00,WUHU21623XXSP,2013-04-06 14:56:00,
2013-04-06 11:02:00,35.4,22.1,30.67,SSW,202,0.0,0.0,58,0.00,,,0.00,WUHU21623XXSP,2013-04-06 15:02:00,
2013-04-06 11:06:00,35.8,22.0,30.66,NNW,337,1.8,1.8,57,0.00,,,0.00,WUHU21623XXSP,2013-04-06 15:06:00,
2013-04-06 11:13:00,35.8,22.0,30.66,NE,45,0.0,1.8,57,0.00,,,0.00,WUHU21623XXSP,2013-04-06 15:13:00,
2013-04-06 11:17:00,35.8,22.5,30.66,SW,225,0.0,0.0,58,0.00,,,0.00,WUHU21623XXSP,2013-04-06 15:17:00,
2013-04-06 11:23:00,36.5,22.7,30.66,North,0,0.0,0.0,57,0.00,,,0.00,WUHU21623XXSP,2013-04-06 15:23:00,
2013-04-06 11:28:00,36.9,23.0,30.66,WSW,247,0.0,0.0,57,0.00,,,0.00,WUHU21623XXSP,2013-04-06 15:28:00,
2013-04-06 11:32:00,37.2,23.3,30.66,North,0,0.0,2.2,57,0.00,,,0.00,WUHU21623XXSP,2013-04-06 15:32:00,
2013-04-06 11:38:00,37.6,23.7,30.65,North,0,0.0,2.2,57,0.00,,,0.00,WUHU21623XXSP,2013-04-06 15:38:00,
2013-04-06 11:43:00,38.1,23.7,30.65,East,90,0.0,0.0,56,0.00,,,0.00,WUHU21623XXSP,2013-04-06 15:43:00,
2013-04-06 11:49:00,38.8,23.9,30.64,ENE,67,0.0,3.4,55,0.00,,,0.00,WUHU21623XXSP,2013-04-06 15:49:00,
2013-04-06 11:53:00,39.0,23.7,30.64,North,0,0.0,3.4,54,0.00,,,0.00,WUHU21623XXSP,2013-04-06 15:53:00,
2013-04-06 11:58:00,39.6,24.0,30.64,North,0,0.0,0.0,55,0.00,,,0.00,WUHU21623XXSP,2013-04-06 15:58:00,
2013-04-06 12:04:00,39.9,24.5,30.65,NW,315,0.0,0.0,54,0.00,,,0.00,WUHU21623XXSP,2013-04-06 16:04:00,
2013-04-06 12:08:00,40.1,24.2,30.64,ENE,67,0.0,0.0,53,0.00,,,0.00,WUHU21623XXSP,2013-04-06 16:08:00,
2013-04-06 12:15:00,40.1,24.2,30.64,NE,45,0.0,0.0,53,0.00,,,0.00,WUHU21623XXSP,2013-04-06 16:15:00,
2013-04-06 12:19:00,40.5,24.6,30.64,NE,45,0.0,0.0,53,0.00,,,0.00,WUHU21623XXSP,2013-04-06 16:19:00,
2013-04-06 12:23:00,40.8,24.4,30.63,East,90,0.0,0.0,52,0.00,,,0.00,WUHU21623XXSP,2013-04-06 16:23:00,
2013-04-06 12:30:00,40.8,24.4,30.62,NNE,22,2.0,2.0,52,0.00,,,0.00,WUHU21623XXSP,2013-04-06 16:30:00,
2013-04-06 12:34:00,41.0,24.6,30.62,WSW,247,1.1,2.0,52,0.00,,,0.00,WUHU21623XXSP,2013-04-06 16:34:00,
2013-04-06 12:41:00,41.5,25.1,30.61,NW,315,0.0,1.1,52,0.00,,,0.00,WUHU21623XXSP,2013-04-06 16:41:00,
2013-04-06 12:45:00,41.7,25.3,30.61,East,90,0.0,0.0,52,0.00,,,0.00,WUHU21623XXSP,2013-04-06 16:45:00,
2013-04-06 12:49:00,42.1,25.7,30.61,SSW,202,0.0,0.0,52,0.00,,,0.00,WUHU21623XXSP,2013-04-06 16:49:00,
2013-04-06 12:56:00,42.4,25.8,30.61,ESE,112,0.0,0.0,51,0.00,,,0.00,WUHU21623XXSP,2013-04-06 16:56:00,
2013-04-06 13:00:00,42.1,25.2,30.61,ESE,112,0.0,0.0,51,0.00,,,0.00,WUHU21623XXSP,2013-04-06 17:00:00,
2013-04-06 13:06:00,42.4,25.6,30.61,NE,45,0.0,0.0,51,0.00,,,0.00,WUHU21623XXSP,2013-04-06 17:06:00,
2013-04-06 13:11:00,42.6,25.8,30.61,NE,45,1.6,1.6,51,0.00,,,0.00,WUHU21623XXSP,2013-04-06 17:11:00,
2013-04-06 13:15:00,42.6,25.3,30.61,SSW,202,0.0,1.6,50,0.00,,,0.00,WUHU21623XXSP,2013-04-06 17:15:00,
2013-04-06 13:21:00,43.0,25.7,30.60,SSE,157,0.0,0.0,50,0.00,,,0.00,WUHU21623XXSP,2013-04-06 17:21:00,
2013-04-06 13:26:00,43.0,25.1,30.60,SW,225,0.0,2.0,49,0.00,,,0.00,WUHU21623XXSP,2013-04-06 17:26:00,
2013-04-06 13:32:00,42.6,24.8,30.60,North,0,2.5,3.1,49,0.00,,,0.00,WUHU21623XXSP,2013-04-06 17:32:00,
2013-04-06 13:36:00,42.6,24.8,30.59,North,0,0.0,3.1,49,0.00,,,0.00,WUHU21623XXSP,2013-04-06 17:36:00,
2013-04-06 13:40:00,42.6,24.8,30.59,North,0,0.0,2.5,49,0.00,,,0.00,WUHU21623XXSP,2013-04-06 17:40:00,
2013-04-06 13:47:00,43.0,25.1,30.58,WNW,292,0.0,0.0,49,0.00,,,0.00,WUHU21623XXSP,2013-04-06 17:47:00,
2013-04-06 13:51:00,43.2,25.1,30.58,NNW,337,1.3,1.3,49,0.00,,,0.00,WUHU21623XXSP,2013-04-06 17:51:00,
2013-04-06 13:58:00,43.3,24.9,30.57,ENE,67,0.0,1.3,48,0.00,,,0.00,WUHU21623XXSP,2013-04-06 17:58:00,
2013-04-06 14:02:00,43.5,25.1,30.56,NNE,22,2.0,2.0,48,0.00,,,0.00,WUHU21623XXSP,2013-04-06 18:02:00,
2013-04-06 14:06:00,43.5,25.1,30.56,ESE,112,0.0,2.0,48,0.00,,,0.00,WUHU21623XXSP,2013-04-06 18:06:00,
2013-04-06 14:13:00,43.5,25.1,30.56,NE,45,0.0,2.0,48,0.00,,,0.00,WUHU21623XXSP,2013-04-06 18:13:00,
2013-04-06 14:17:00,43.5,25.1,30.56,South,180,0.0,0.0,48,0.00,,,0.00,WUHU21623XXSP,2013-04-06 18:17:00,
2013-04-06 14:23:00,43.5,25.1,30.56,SSW,202,0.0,0.0,48,0.00,,,0.00,WUHU21623XXSP,2013-04-06 18:23:00,
2013-04-06 14:28:00,43.5,25.1,30.56,South,180,0.0,0.0,48,0.00,,,0.00,WUHU21623XXSP,2013-04-06 18:28:00,
2013-04-06 14:32:00,43.5,25.1,30.55,SSE,157,0.0,0.0,48,0.00,,,0.00,WUHU21623XXSP,2013-04-06 18:32:00,
2013-04-06 14:38:00,43.9,25.4,30.55,NW,315,0.0,0.0,48,0.00,,,0.00,WUHU21623XXSP,2013-04-06 18:38:00,
2013-04-06 14:43:00,44.2,25.7,30.55,WSW,247,0.0,0.0,48,0.00,,,0.00,WUHU21623XXSP,2013-04-06 18:43:00,
2013-04-06 14:49:00,44.1,25.6,30.53,WSW,247,0.9,2.9,48,0.00,,,0.00,WUHU21623XXSP,2013-04-06 18:49:00,
2013-04-06 14:53:00,43.9,25.4,30.53,WSW,247,0.9,2.9,48,0.00,,,0.00,WUHU21623XXSP,2013-04-06 18:53:00,
2013-04-06 14:58:00,43.9,25.4,30.53,East,90,4.3,4.3,48,0.00,,,0.00,WUHU21623XXSP,2013-04-06 18:58:00,
2013-04-06 15:04:00,44.1,25.4,30.53,WSW,247,0.0,4.3,48,0.00,,,0.00,WUHU21623XXSP,2013-04-06 19:04:00,
2013-04-06 15:08:00,44.2,25.7,30.53,SE,135,0.0,0.0,48,0.00,,,0.00,WUHU21623XXSP,2013-04-06 19:08:00,
2013-04-06 15:15:00,44.2,25.7,30.52,SSE,157,0.0,0.0,48,0.00,,,0.00,WUHU21623XXSP,2013-04-06 19:15:00,
2013-04-06 15:19:00,44.4,25.9,30.52,SSE,157,0.0,0.0,48,0.00,,,0.00,WUHU21623XXSP,2013-04-06 19:19:00,
2013-04-06 15:23:00,44.4,25.9,30.52,NNE,22,0.0,0.0,48,0.00,,,0.00,WUHU21623XXSP,2013-04-06 19:23:00,
2013-04-06 15:30:00,44.8,26.2,30.51,SW,225,0.0,1.6,48,0.00,,,0.00,WUHU21623XXSP,2013-04-06 19:30:00,
2013-04-06 15:34:00,45.1,26.0,30.49,South,180,1.3,1.6,47,0.00,,,0.00,WUHU21623XXSP,2013-04-06 19:34:00,
2013-04-06 15:40:00,45.5,26.3,30.50,WSW,247,0.0,1.3,47,0.00,,,0.00,WUHU21623XXSP,2013-04-06 19:40:00,
2013-04-06 15:45:00,45.9,26.7,30.50,NE,45,0.0,0.0,47,0.00,,,0.00,WUHU21623XXSP,2013-04-06 19:45:00,
2013-04-06 15:49:00,46.0,26.3,30.50,NNE,22,0.0,0.0,46,0.00,,,0.00,WUHU21623XXSP,2013-04-06 19:49:00,
2013-04-06 15:55:00,46.0,26.4,30.49,NNE,22,0.0,0.0,46,0.00,,,0.00,WUHU21623XXSP,2013-04-06 19:55:00,
2013-04-06 16:00:00,45.9,26.1,30.48,West,270,0.0,0.0,46,0.00,,,0.00,WUHU21623XXSP,2013-04-06 20:00:00,
2013-04-06 16:06:00,45.7,25.4,30.47,SSW,202,0.0,0.0,45,0.00,,,0.00,WUHU21623XXSP,2013-04-06 20:06:00,
2013-04-06 16:10:00,45.7,25.4,30.47,SSE,157,0.0,0.0,45,0.00,,,0.00,WUHU21623XXSP,2013-04-06 20:10:00,
2013-04-06 16:15:00,45.7,25.4,30.47,North,0,0.0,0.0,45,0.00,,,0.00,WUHU21623XXSP,2013-04-06 20:15:00,
2013-04-06 16:21:00,45.3,25.1,30.48,North,0,0.0,0.0,45,0.00,,,0.00,WUHU21623XXSP,2013-04-06 20:21:00,
2013-04-06 16:25:00,45.3,25.6,30.48,WNW,292,0.0,0.0,46,0.00,,,0.00,WUHU21623XXSP,2013-04-06 20:25:00,
2013-04-06 16:32:00,45.1,25.5,30.46,SE,135,0.0,0.0,46,0.00,,,0.00,WUHU21623XXSP,2013-04-06 20:32:00,
2013-04-06 16:36:00,45.1,24.9,30.46,WSW,247,2.2,2.2,45,0.00,,,0.00,WUHU21623XXSP,2013-04-06 20:36:00,
2013-04-06 16:40:00,45.1,24.9,30.47,NE,45,0.0,2.2,45,0.00,,,0.00,WUHU21623XXSP,2013-04-06 20:40:00,
2013-04-06 16:47:00,45.5,25.3,30.47,WNW,292,0.0,0.0,45,0.00,,,0.00,WUHU21623XXSP,2013-04-06 20:47:00,
2013-04-06 16:51:00,45.7,25.4,30.46,ESE,112,0.0,0.0,45,0.00,,,0.00,WUHU21623XXSP,2013-04-06 20:51:00,
2013-04-06 16:58:00,46.0,25.7,30.44,East,90,0.0,0.0,45,0.00,,,0.00,WUHU21623XXSP,2013-04-06 20:58:00,
2013-04-06 17:02:00,46.0,25.2,30.43,West,270,0.0,0.0,44,0.00,,,0.00,WUHU21623XXSP,2013-04-06 21:02:00,
2013-04-06 17:06:00,46.2,25.9,30.42,NE,45,0.0,0.0,45,0.00,,,0.00,WUHU21623XXSP,2013-04-06 21:06:00,
2013-04-06 17:13:00,46.9,26.4,30.41,West,270,0.0,0.0,44,0.00,,,0.00,WUHU21623XXSP,2013-04-06 21:13:00,
2013-04-06 17:17:00,47.1,26.2,30.40,ESE,112,0.0,0.0,44,0.00,,,0.00,WUHU21623XXSP,2013-04-06 21:17:00,
2013-04-06 17:23:00,47.5,26.0,30.40,SSE,157,0.0,0.0,43,0.00,,,0.00,WUHU21623XXSP,2013-04-06 21:23:00,
2013-04-06 17:27:00,47.3,25.8,30.40,ESE,112,0.0,0.0,43,0.00,,,0.00,WUHU21623XXSP,2013-04-06 21:27:00,
2013-04-06 17:32:00,47.7,26.1,30.40,ENE,67,5.8,5.8,43,0.00,,,0.00,WUHU21623XXSP,2013-04-06 21:32:00,
2013-04-06 17:38:00,48.2,26.1,30.39,East,90,0.0,5.8,42,0.00,,,0.00,WUHU21623XXSP,2013-04-06 21:38:00,
2013-04-06 17:42:00,48.9,27.3,30.39,South,180,0.0,0.0,43,0.00,,,0.00,WUHU21623XXSP,2013-04-06 21:42:00,
2013-04-06 17:49:00,49.6,27.4,30.38,SSW,202,0.0,0.0,42,0.00,,,0.00,WUHU21623XXSP,2013-04-06 21:49:00,
2013-04-06 17:53:00,49.6,26.8,30.36,ENE,67,0.0,0.0,41,0.00,,,0.00,WUHU21623XXSP,2013-04-06 21:53:00,
2013-04-06 17:57:00,49.6,26.8,30.38,NE,45,0.0,0.0,41,0.00,,,0.00,WUHU21623XXSP,2013-04-06 21:57:00,
2013-04-06 18:04:00,49.3,26.5,30.36,WSW,247,0.0,0.0,41,0.00,,,0.00,WUHU21623XXSP,2013-04-06 22:04:00,
2013-04-06 18:08:00,49.6,26.3,30.37,NNW,337,3.8,3.8,40,0.00,,,0.00,WUHU21623XXSP,2013-04-06 22:08:00,
2013-04-06 18:15:00,50.2,27.3,30.36,SW,225,0.0,3.8,41,0.00,,,0.00,WUHU21623XXSP,2013-04-06 22:15:00,
2013-04-06 18:19:00,50.5,27.1,30.35,SW,225,0.0,1.3,40,0.00,,,0.00,WUHU21623XXSP,2013-04-06 22:19:00,
2013-04-06 18:23:00,50.5,27.1,30.35,North,0,0.0,0.0,40,0.00,,,0.00,WUHU21623XXSP,2013-04-06 22:23:00,
2013-04-06 18:30:00,50.7,27.2,30.34,North,0,0.0,0.0,40,0.00,,,0.00,WUHU21623XXSP,2013-04-06 22:30:00,
2013-04-06 18:34:00,50.9,27.4,30.34,SSW,202,0.0,0.0,40,0.00,,,0.00,WUHU21623XXSP,2013-04-06 22:34:00,
2013-04-06 18:40:00,50.7,27.2,30.33,SSE,157,0.0,0.0,40,0.00,,,0.00,WUHU21623XXSP,2013-04-06 22:40:00,
2013-04-06 18:45:00,50.5,26.4,30.33,WSW,247,0.0,0.0,39,0.00,,,0.00,WUHU21623XXSP,2013-04-06 22:45:00,
2013-04-06 18:49:00,50.2,26.1,30.33,North,0,0.0,0.0,39,0.00,,,0.00,WUHU21623XXSP,2013-04-06 22:49:00,
2013-04-06 18:55:00,49.8,25.8,30.33,ESE,112,0.0,0.0,39,0.00,,,0.00,WUHU21623XXSP,2013-04-06 22:55:00,
2013-04-06 19:00:00,49.8,25.8,30.34,North,0,0.0,0.0,39,0.00,,,0.00,WUHU21623XXSP,2013-04-06 23:00:00,
2013-04-06 19:06:00,49.3,26.0,30.33,North,0,0.0,0.0,40,0.00,,,0.00,WUHU21623XXSP,2013-04-06 23:06:00,
2013-04-06 19:10:00,49.3,26.0,30.34,SE,135,0.0,0.0,40,0.00,,,0.00,WUHU21623XXSP,2013-04-06 23:10:00,
2013-04-06 19:15:00,49.3,26.0,30.35,NW,315,0.0,0.0,40,0.00,,,0.00,WUHU21623XXSP,2013-04-06 23:15:00,
2013-04-06 19:21:00,48.9,25.6,30.34,WSW,247,0.0,0.0,40,0.00,,,0.00,WUHU21623XXSP,2013-04-06 23:21:00,
2013-04-06 19:25:00,49.1,25.8,30.34,ENE,67,0.0,0.0,40,0.00,,,0.00,WUHU21623XXSP,2013-04-06 23:25:00,
2013-04-06 19:32:00,48.9,25.6,30.34,NNE,22,0.0,0.0,40,0.00,,,0.00,WUHU21623XXSP,2013-04-06 23:32:00,
2013-04-06 19:36:00,48.9,25.6,30.33,WSW,247,0.0,0.0,40,0.00,,,0.00,WUHU21623XXSP,2013-04-06 23:36:00,
2013-04-06 19:42:00,48.7,25.5,30.34,ENE,67,0.0,0.0,40,0.00,,,0.00,WUHU21623XXSP,2013-04-06 23:42:00,
2013-04-06 19:47:00,48.6,25.3,30.33,West,270,0.0,1.6,40,0.00,,,0.00,WUHU21623XXSP,2013-04-06 23:47:00,
2013-04-06 19:51:00,48.4,25.7,30.34,North,0,0.0,1.6,41,0.00,,,0.00,WUHU21623XXSP,2013-04-06 23:51:00,
2013-04-06 19:57:00,48.2,25.5,30.34,ESE,112,0.0,0.0,41,0.00,,,0.00,WUHU21623XXSP,2013-04-06 23:57:00,
2013-04-06 20:02:00,48.4,25.7,30.34,West,270,0.0,0.0,41,0.00,,,0.00,WUHU21623XXSP,2013-04-07 00:02:00,
2013-04-06 20:08:00,48.0,25.4,30.33,North,0,0.0,0.0,41,0.00,,,0.00,WUHU21623XXSP,2013-04-07 00:08:00,
2013-04-06 20:12:00,48.0,25.4,30.33,South,180,0.0,0.0,41,0.00,,,0.00,WUHU21623XXSP,2013-04-07 00:12:00,
2013-04-06 20:17:00,48.0,25.4,30.33,NE,45,0.0,0.0,41,0.00,,,0.00,WUHU21623XXSP,2013-04-07 00:17:00,
2013-04-06 20:23:00,48.0,25.4,30.33,North,0,0.0,0.0,41,0.00,,,0.00,WUHU21623XXSP,2013-04-07 00:23:00,
2013-04-06 20:27:00,48.0,25.4,30.31,ENE,67,0.0,0.0,41,0.00,,,0.00,WUHU21623XXSP,2013-04-07 00:27:00,
2013-04-06 20:34:00,48.0,25.9,30.29,NE,45,0.0,0.0,42,0.00,,,0.00,WUHU21623XXSP,2013-04-07 00:34:00,
2013-04-06 20:38:00,47.8,25.7,30.29,West,270,0.0,0.0,42,0.00,,,0.00,WUHU21623XXSP,2013-04-07 00:38:00,
2013-04-06 20:42:00,47.8,25.7,30.30,NW,315,0.0,0.0,42,0.00,,,0.00,WUHU21623XXSP,2013-04-07 00:42:00,
2013-04-06 20:49:00,47.8,25.2,30.29,SSE,157,0.0,3.4,41,0.00,,,0.00,WUHU21623XXSP,2013-04-07 00:49:00,
2013-04-06 20:53:00,47.8,25.2,30.29,North,0,0.7,3.4,41,0.00,,,0.00,WUHU21623XXSP,2013-04-07 00:53:00,
2013-04-06 20:59:00,47.8,25.2,30.28,NNE,22,0.0,0.7,41,0.00,,,0.00,WUHU21623XXSP,2013-04-07 00:59:00,
2013-04-06 21:04:00,47.8,25.2,30.28,NNW,337,1.8,1.8,41,0.00,,,0.00,WUHU21623XXSP,2013-04-07 01:04:00,
2013-04-06 21:08:00,47.8,25.7,30.27,NNE,22,5.1,5.1,42,0.00,,,0.00,WUHU21623XXSP,2013-04-07 01:08:00,
2013-04-06 21:14:00,47.5,26.5,30.27,ENE,67,0.0,5.1,44,0.00,,,0.00,WUHU21623XXSP,2013-04-07 01:14:00,
2013-04-06 21:19:00,47.1,27.8,30.27,NE,45,2.7,2.7,47,0.00,,,0.00,WUHU21623XXSP,2013-04-07 01:19:00,
2013-04-06 21:25:00,46.6,27.8,30.26,NW,315,0.0,2.7,48,0.00,,,0.00,WUHU21623XXSP,2013-04-07 01:25:00,
2013-04-06 21:29:00,46.2,28.1,30.26,ESE,112,0.0,2.7,49,0.00,,,0.00,WUHU21623XXSP,2013-04-07 01:29:00,
2013-04-06 21:34:00,46.0,27.9,30.26,SW,225,0.0,0.0,49,0.00,,,0.00,WUHU21623XXSP,2013-04-07 01:34:00,
2013-04-06 21:40:00,45.9,28.3,30.25,ESE,112,0.0,0.0,50,0.00,,,0.00,WUHU21623XXSP,2013-04-07 01:40:00,
2013-04-06 21:44:00,45.7,28.1,30.25,NNW,337,0.0,0.0,50,0.00,,,0.00,WUHU21623XXSP,2013-04-07 01:44:00,
2013-04-06 21:51:00,45.7,28.1,30.24,West,270,0.0,0.0,50,0.00,,,0.00,WUHU21623XXSP,2013-04-07 01:51:00,
2013-04-06 21:55:00,46.0,28.4,30.25,SSE,157,0.0,0.0,50,0.00,,,0.00,WUHU21623XXSP,2013-04-07 01:55:00,
2013-04-06 21:59:00,46.0,28.4,30.24,SSW,202,0.0,0.0,50,0.00,,,0.00,WUHU21623XXSP,2013-04-07 01:59:00,
2013-04-06 22:06:00,46.2,28.6,30.24,SE,135,0.0,0.0,50,0.00,,,0.00,WUHU21623XXSP,2013-04-07 02:06:00,
2013-04-06 22:10:00,46.2,28.6,30.23,South,180,0.0,0.0,50,0.00,,,0.00,WUHU21623XXSP,2013-04-07 02:10:00,
2013-04-06 22:16:00,46.2,28.6,30.23,ENE,67,0.0,2.2,50,0.00,,,0.00,WUHU21623XXSP,2013-04-07 02:16:00,
2013-04-06 22:20:00,46.2,28.6,30.22,SSW,202,0.0,2.2,50,0.00,,,0.00,WUHU21623XXSP,2013-04-07 02:20:00,
2013-04-06 22:27:00,46.6,28.4,30.22,NE,45,0.0,0.0,49,0.00,,,0.00,WUHU21623XXSP,2013-04-07 02:27:00,
2013-04-06 22:31:00,46.6,28.9,30.22,East,90,0.0,0.0,50,0.00,,,0.00,WUHU21623XXSP,2013-04-07 02:31:00,
2013-04-06 22:36:00,46.6,28.4,30.21,NE,45,0.0,0.0,49,0.00,,,0.00,WUHU21623XXSP,2013-04-07 02:36:00,
2013-04-06 22:42:00,46.8,28.5,30.21,SW,225,0.0,0.0,49,0.00,,,0.00,WUHU21623XXSP,2013-04-07 02:42:00,
2013-04-06 22:46:00,46.9,28.7,30.21,SSW,202,0.0,0.0,49,0.00,,,0.00,WUHU21623XXSP,2013-04-07 02:46:00,
2013-04-06 22:53:00,46.9,28.7,30.21,NNE,22,0.0,0.0,49,0.00,,,0.00,WUHU21623XXSP,2013-04-07 02:53:00,
2013-04-06 22:57:00,47.1,28.9,30.21,WNW,292,3.1,3.1,49,0.00,,,0.00,WUHU21623XXSP,2013-04-07 02:57:00,
2013-04-06 23:01:00,47.1,28.9,30.21,North,0,0.0,3.1,49,0.00,,,0.00,WUHU21623XXSP,2013-04-07 03:01:00,
2013-04-06 23:08:00,47.3,29.0,30.21,SW,225,0.0,0.0,49,0.00,,,0.00,WUHU21623XXSP,2013-04-07 03:08:00,
2013-04-06 23:12:00,47.5,29.0,30.21,North,0,0.0,0.0,48,0.00,,,0.00,WUHU21623XXSP,2013-04-07 03:12:00,
2013-04-06 23:18:00,47.7,28.8,30.20,ENE,67,0.0,0.0,48,0.00,,,0.00,WUHU21623XXSP,2013-04-07 03:18:00,
2013-04-06 23:23:00,47.8,29.0,30.20,ESE,112,0.0,0.0,48,0.00,,,0.00,WUHU21623XXSP,2013-04-07 03:23:00,
2013-04-06 23:27:00,48.0,29.1,30.20,West,270,0.0,0.0,48,0.00,,,0.00,WUHU21623XXSP,2013-04-07 03:27:00,
2013-04-06 23:33:00,48.0,29.1,30.20,WNW,292,0.0,0.0,48,0.00,,,0.00,WUHU21623XXSP,2013-04-07 03:33:00,
2013-04-06 23:38:00,48.0,29.1,30.20,East,90,3.1,3.1,48,0.00,,,0.00,WUHU21623XXSP,2013-04-07 03:38:00,
2013-04-06 23:44:00,48.0,28.6,30.19,NNE,22,0.0,3.1,47,0.00,,,0.00,WUHU21623XXSP,2013-04-07 03:44:00,
2013-04-06 23:48:00,48.0,28.6,30.19,SE,135,0.0,0.0,47,0.00,,,0.00,WUHU21623XXSP,2013-04-07 03:48:00,
2013-04-06 23:53:00,48.0,28.6,30.20,ESE,112,0.0,0.0,47,0.00,,,0.00,WUHU21623XXSP,2013-04-07 03:53:00,
2013-04-06 23:59:00,48.4,28.9,30.20,NNW,337,0.0,0.0,47,0.00,,,0.00,WUHU21623XXSP,2013-04-07 03:59:00,